Location: Kellogg
(38.0159°N, 90.0546°W)
Time: 16:03:40
(UTC+00:00)

Vanguard 1 Rocket - Pass Details

Date: 22 September 2024
Orbit: 650 x 4218 km, 34.3° (Epoch: 07 October)

Event Time Altitude Azimuth Distance (km) Brightness Sun altitude
Rises 11:24:07 0° 275° (W) 5,722 - -5.6°
Exits shadow 11:25:44 - 274° (W) 5,371 10.6 -5.3°
Reaches altitude 10° 11:27:10 10° 273° (W) 5,079 10.5 -5.0°
Maximum altitude 11:43:50 75° 192° (SSW) 3,692 10.5 -1.8°
Drops below altitude 10° 12:09:57 10° 114° (ESE) 7,392 13.6 3.4°
Sets 12:15:35 0° 113° (ESE) 8,305 14.0 4.5°
